ANZ659 NZCH-NZQN

Flight info

Callsign ANZ659
Flight time 0h 39m
Altitude 28000
Route MUKVO2P GUPUT Y266 ELRUV ELRUV5B
Aircraft A320/M-SDE3FGHIRWY/LB1

Departure

Time 2026-05-07 00:22
Airport Christchurch International Airport (NZCH)

Arrival

Time 2026-05-07 01:01
Airport Queenstown Airport (NZQN)
Time Latitude Longitude Altitude Speed Heading
2026-05-06 23:51 -43.48922 172.53719 113 ft 0 kts 129°
2026-05-07 00:13 -43.48922 172.53718 113 ft 0 kts 129°
2026-05-07 00:13 -43.48908 172.53695 113 ft 4 kts 129°
2026-05-07 00:14 -43.48892 172.53666 113 ft 4 kts 126°
2026-05-07 00:14 -43.48877 172.53635 113 ft 4 kts 118°
2026-05-07 00:14 -43.48866 172.53602 111 ft 4 kts 101°
2026-05-07 00:14 -43.48864 172.53589 112 ft 1 kts 96°
2026-05-07 00:17 -43.48864 172.53591 112 ft 1 kts 93°
2026-05-07 00:17 -43.48851 172.53609 114 ft 4 kts 46°
2026-05-07 00:18 -43.48853 172.53626 113 ft 3 kts 194°
2026-05-07 00:18 -43.48884 172.53571 111 ft 12 kts 236°
2026-05-07 00:18 -43.48971 172.53460 111 ft 20 kts 220°
2026-05-07 00:18 -43.49089 172.53330 109 ft 23 kts 221°
2026-05-07 00:19 -43.49212 172.53186 112 ft 24 kts 220°
2026-05-07 00:19 -43.49343 172.53035 115 ft 24 kts 219°
2026-05-07 00:19 -43.49476 172.52883 118 ft 25 kts 216°
2026-05-07 00:19 -43.49614 172.52726 120 ft 27 kts 222°
2026-05-07 00:20 -43.49753 172.52566 117 ft 18 kts 221°
2026-05-07 00:20 -43.49796 172.52486 119 ft 11 kts 259°
2026-05-07 00:20 -43.49790 172.52344 116 ft 17 kts 274°
2026-05-07 00:20 -43.49734 172.52235 114 ft 12 kts 25°
2026-05-07 00:21 -43.49685 172.52298 113 ft 12 kts 39°
2026-05-07 00:21 -43.49483 172.52530 114 ft 72 kts 40°
2026-05-07 00:21 -43.48935 172.53160 109 ft 130 kts 40°
2026-05-07 00:21 -43.48185 172.54037 504 ft 141 kts 40°
2026-05-07 00:22 -43.47431 172.54907 1204 ft 141 kts 35°
2026-05-07 00:22 -43.46592 172.55547 1867 ft 138 kts 15°
2026-05-07 00:22 -43.45636 172.56056 2269 ft 158 kts 19°
2026-05-07 00:22 -43.44565 172.56706 2581 ft 179 kts 20°
2026-05-07 00:23 -43.43374 172.57478 2945 ft 200 kts 20°
2026-05-07 00:23 -43.42125 172.58305 3806 ft 200 kts 19°
2026-05-07 00:23 -43.40859 172.59138 4703 ft 202 kts 17°
2026-05-07 00:23 -43.39543 172.59632 5524 ft 192 kts 349°
2026-05-07 00:24 -43.38369 172.58931 6441 ft 184 kts 317°
2026-05-07 00:24 -43.37757 172.57384 7323 ft 195 kts 286°
2026-05-07 00:24 -43.37915 172.55451 8154 ft 211 kts 268°
2026-05-07 00:24 -43.38270 172.53484 9014 ft 213 kts 267°
2026-05-07 00:25 -43.38636 172.51501 9888 ft 214 kts 266°
2026-05-07 00:25 -43.39236 172.49557 10544 ft 237 kts 239°
2026-05-07 00:25 -43.40690 172.48206 11050 ft 276 kts 205°
2026-05-07 00:25 -43.42662 172.47669 11340 ft 309 kts 192°
2026-05-07 00:26 -43.44905 172.47506 11593 ft 336 kts 186°
2026-05-07 00:26 -43.47330 172.47525 11888 ft 358 kts 184°
2026-05-07 00:26 -43.49842 172.47429 12516 ft 360 kts 193°
2026-05-07 00:26 -43.52221 172.46519 13264 ft 353 kts 211°
2026-05-07 00:27 -43.54263 172.44725 13995 ft 344 kts 227°
2026-05-07 00:27 -43.55834 172.42277 14653 ft 338 kts 242°
2026-05-07 00:27 -43.56979 172.39461 15363 ft 336 kts 249°
2026-05-07 00:27 -43.58090 172.36609 16034 ft 339 kts 248°
2026-05-07 00:28 -43.59229 172.33730 16663 ft 344 kts 247°
2026-05-07 00:28 -43.60389 172.30821 17305 ft 348 kts 247°
2026-05-07 00:28 -43.61567 172.27879 17942 ft 352 kts 247°
2026-05-07 00:28 -43.62746 172.24929 18508 ft 357 kts 246°
2026-05-07 00:29 -43.63950 172.21911 19076 ft 361 kts 247°
2026-05-07 00:29 -43.65164 172.18856 19640 ft 365 kts 247°
2026-05-07 00:30 -43.68877 172.09479 21320 ft 377 kts 247°
2026-05-07 00:30 -43.70139 172.06276 21863 ft 381 kts 247°
2026-05-07 00:30 -43.71416 172.03038 22422 ft 385 kts 247°
2026-05-07 00:30 -43.72700 171.99775 22910 ft 390 kts 248°
2026-05-07 00:31 -43.73987 171.96494 23403 ft 395 kts 248°
2026-05-07 00:31 -43.75302 171.93138 23865 ft 398 kts 247°
2026-05-07 00:31 -43.76629 171.89759 24338 ft 401 kts 247°
2026-05-07 00:31 -43.77966 171.86354 24794 ft 404 kts 247°
2026-05-07 00:32 -43.79310 171.82927 25244 ft 406 kts 247°
2026-05-07 00:32 -43.80205 171.80642 25537 ft 408 kts 248°
2026-05-07 00:32 -43.82023 171.75988 26112 ft 412 kts 248°
2026-05-07 00:32 -43.83377 171.72525 26532 ft 415 kts 248°
2026-05-07 00:33 -43.84319 171.70149 26817 ft 417 kts 246°
2026-05-07 00:33 -43.86253 171.65509 27371 ft 422 kts 245°
2026-05-07 00:33 -43.87270 171.63148 27631 ft 424 kts 245°
2026-05-07 00:33 -43.88803 171.59629 27780 ft 424 kts 245°
2026-05-07 00:34 -43.90304 171.56211 27804 ft 407 kts 245°
2026-05-07 00:34 -43.91754 171.52888 27819 ft 400 kts 245°
2026-05-07 00:34 -43.93157 171.49611 27798 ft 399 kts 246°
2026-05-07 00:34 -43.94562 171.46289 27800 ft 398 kts 246°
2026-05-07 00:35 -43.95956 171.42971 27803 ft 398 kts 246°
2026-05-07 00:35 -43.97349 171.39652 27800 ft 398 kts 246°
2026-05-07 00:35 -43.98745 171.36337 27794 ft 398 kts 246°
2026-05-07 00:35 -44.00151 171.33009 27794 ft 398 kts 246°
2026-05-07 00:36 -44.01550 171.29696 27794 ft 398 kts 246°
2026-05-07 00:36 -44.02949 171.26381 27813 ft 398 kts 246°
2026-05-07 00:36 -44.04334 171.23100 27812 ft 398 kts 246°
2026-05-07 00:36 -44.05736 171.19780 27807 ft 398 kts 246°
2026-05-07 00:37 -44.07137 171.16454 27803 ft 399 kts 246°
2026-05-07 00:37 -44.08535 171.13124 27813 ft 399 kts 246°
2026-05-07 00:37 -44.09930 171.09787 27809 ft 399 kts 246°
2026-05-07 00:37 -44.11322 171.06446 27810 ft 399 kts 246°
2026-05-07 00:38 -44.12709 171.03113 27817 ft 399 kts 246°
2026-05-07 00:38 -44.14104 170.99764 27813 ft 399 kts 246°
2026-05-07 00:38 -44.15499 170.96421 27816 ft 399 kts 246°
2026-05-07 00:38 -44.16893 170.93083 27815 ft 399 kts 246°
2026-05-07 00:39 -44.18286 170.89736 27844 ft 399 kts 246°
2026-05-07 00:39 -44.19676 170.86387 27837 ft 399 kts 246°
2026-05-07 00:39 -44.21069 170.83036 27829 ft 399 kts 246°
2026-05-07 00:39 -44.22459 170.79687 27824 ft 399 kts 246°
2026-05-07 00:40 -44.23843 170.76344 27819 ft 399 kts 246°
2026-05-07 00:40 -44.25231 170.72991 27826 ft 399 kts 246°
2026-05-07 00:40 -44.26620 170.69639 27824 ft 399 kts 246°
2026-05-07 00:40 -44.27989 170.66324 27823 ft 399 kts 246°
2026-05-07 00:41 -44.29391 170.62925 27820 ft 398 kts 246°
2026-05-07 00:41 -44.30751 170.59616 27825 ft 398 kts 246°
2026-05-07 00:41 -44.32129 170.56258 27823 ft 398 kts 246°
2026-05-07 00:41 -44.33506 170.52898 27851 ft 399 kts 247°
2026-05-07 00:42 -44.34884 170.49537 27828 ft 399 kts 248°
2026-05-07 00:42 -44.36263 170.46170 27823 ft 399 kts 248°
2026-05-07 00:42 -44.37642 170.42788 27752 ft 404 kts 248°
2026-05-07 00:42 -44.39044 170.39334 27110 ft 410 kts 247°
2026-05-07 00:43 -44.40448 170.35886 26725 ft 405 kts 247°
2026-05-07 00:43 -44.41843 170.32479 26276 ft 403 kts 247°
2026-05-07 00:43 -44.43235 170.29079 25844 ft 400 kts 247°
2026-05-07 00:43 -44.44615 170.25698 25466 ft 397 kts 247°
2026-05-07 00:44 -44.45978 170.22351 25063 ft 394 kts 248°
2026-05-07 00:44 -44.47332 170.19020 24595 ft 394 kts 247°
2026-05-07 00:44 -44.48674 170.15713 24356 ft 387 kts 248°
2026-05-07 00:44 -44.50005 170.12434 23850 ft 387 kts 248°
2026-05-07 00:45 -44.51327 170.09157 23457 ft 385 kts 248°
2026-05-07 00:45 -44.52619 170.05942 23021 ft 383 kts 248°
2026-05-07 00:45 -44.53923 170.02698 22560 ft 379 kts 248°
2026-05-07 00:45 -44.55213 169.99493 21922 ft 373 kts 249°
2026-05-07 00:46 -44.56474 169.96369 21303 ft 361 kts 248°
2026-05-07 00:46 -44.57694 169.93368 20894 ft 347 kts 249°
2026-05-07 00:46 -44.58852 169.90499 20501 ft 340 kts 249°
2026-05-07 00:46 -44.60003 169.87610 20098 ft 339 kts 249°
2026-05-07 00:47 -44.61147 169.84722 19680 ft 338 kts 249°
2026-05-07 00:47 -44.62291 169.81834 19261 ft 338 kts 250°
2026-05-07 00:47 -44.63436 169.78952 18828 ft 338 kts 249°
2026-05-07 00:47 -44.64584 169.76077 18403 ft 336 kts 249°
2026-05-07 00:48 -44.65726 169.73225 17964 ft 335 kts 250°
2026-05-07 00:48 -44.66866 169.70370 17491 ft 334 kts 250°
2026-05-07 00:48 -44.67999 169.67527 17075 ft 333 kts 250°
2026-05-07 00:48 -44.69126 169.64701 16637 ft 329 kts 250°
2026-05-07 00:49 -44.70242 169.61912 16230 ft 325 kts 250°
2026-05-07 00:49 -44.71330 169.59177 15818 ft 324 kts 251°
2026-05-07 00:49 -44.72423 169.56416 15411 ft 322 kts 250°
2026-05-07 00:49 -44.73507 169.53671 15003 ft 319 kts 250°
2026-05-07 00:50 -44.74583 169.50948 14598 ft 318 kts 250°
2026-05-07 00:50 -44.75654 169.48240 14195 ft 316 kts 250°
2026-05-07 00:50 -44.76721 169.45546 13786 ft 315 kts 250°
2026-05-07 00:50 -44.77781 169.42860 13374 ft 314 kts 250°
2026-05-07 00:51 -44.78836 169.40177 12965 ft 312 kts 250°
2026-05-07 00:51 -44.79878 169.37534 12711 ft 305 kts 251°
2026-05-07 00:51 -44.80903 169.34931 12337 ft 303 kts 251°
2026-05-07 00:51 -44.81747 169.32268 11954 ft 291 kts 264°
2026-05-07 00:52 -44.82217 169.29537 11587 ft 285 kts 265°
2026-05-07 00:52 -44.82666 169.26821 11219 ft 284 kts 264°
2026-05-07 00:52 -44.83110 169.24137 10859 ft 284 kts 264°
2026-05-07 00:52 -44.83559 169.21421 10478 ft 285 kts 264°
2026-05-07 00:53 -44.84013 169.18690 10098 ft 286 kts 264°
2026-05-07 00:53 -44.84550 169.15977 9790 ft 291 kts 253°
2026-05-07 00:53 -44.85569 169.13468 9367 ft 301 kts 241°
2026-05-07 00:53 -44.86787 169.11039 8901 ft 302 kts 239°
2026-05-07 00:54 -44.88257 169.08966 8500 ft 299 kts 219°
2026-05-07 00:54 -44.90118 169.07720 8108 ft 294 kts 199°
2026-05-07 00:54 -44.92069 169.07001 7729 ft 286 kts 198°
2026-05-07 00:54 -44.93986 169.06534 7369 ft 281 kts 183°
2026-05-07 00:55 -44.95904 169.06672 7029 ft 271 kts 178°
2026-05-07 00:55 -44.97755 169.06854 6690 ft 262 kts 178°
2026-05-07 00:55 -44.99531 169.06705 6354 ft 254 kts 197°
2026-05-07 00:55 -45.01147 169.05770 5968 ft 248 kts 215°
2026-05-07 00:56 -45.02387 169.04229 5623 ft 227 kts 236°
2026-05-07 00:56 -45.03198 169.02365 5347 ft 223 kts 255°
2026-05-07 00:56 -45.03598 169.00305 5043 ft 214 kts 269°
2026-05-07 00:56 -45.03603 168.98217 4708 ft 209 kts 279°
2026-05-07 00:57 -45.03288 168.96265 4402 ft 204 kts 291°
2026-05-07 00:57 -45.02684 168.94487 4129 ft 198 kts 303°
2026-05-07 00:57 -45.01953 168.92840 3846 ft 198 kts 302°
2026-05-07 00:57 -45.01229 168.91197 3530 ft 195 kts 301°
2026-05-07 00:58 -45.00533 168.89613 3252 ft 184 kts 301°
2026-05-07 00:58 -45.00022 168.88035 3000 ft 170 kts 284°
2026-05-07 00:58 -44.99871 168.86478 2784 ft 152 kts 269°
2026-05-07 00:58 -44.99995 168.85048 2561 ft 144 kts 258°
2026-05-07 00:59 -45.00389 168.82307 2162 ft 141 kts 259°
2026-05-07 00:59 -45.00614 168.80957 1954 ft 141 kts 254°
2026-05-07 00:59 -45.00917 168.79645 1757 ft 140 kts 251°
2026-05-07 01:00 -45.01236 168.78341 1597 ft 139 kts 252°
2026-05-07 01:00 -45.01467 168.77017 1405 ft 139 kts 259°
2026-05-07 01:00 -45.01671 168.75677 1220 ft 139 kts 257°
2026-05-07 01:00 -45.01853 168.74524 1173 ft 88 kts 257°
2026-05-07 01:01 -45.01918 168.74097 1175 ft 17 kts 249°
2026-05-07 01:01 -45.01994 168.74018 1176 ft 12 kts 202°
2026-05-07 01:01 -45.02040 168.73951 1172 ft 11 kts 264°
2026-05-07 01:01 -45.02050 168.73872 1174 ft 7 kts 256°
2026-05-07 01:02 -45.02068 168.73834 1170 ft 3 kts 217°
2026-05-07 01:02 -45.02081 168.73824 1173 ft 0 kts 209°
2026-05-07 01:03 -45.02197 168.74113 1170 ft 0 kts 252°